Regional Weather Roundup
Issued by NWS

Home | Current Version | Previous Version | Text Only | Print | Product List | Glossary On
Versions: 1 2 3 4 5 6 7 8 9 10 11 12 13 14 15 16 17 18 19 20 21 22 23 24 25 26 27
000
ASUS45 KBOU 291107
RWRCO

WEATHER ROUNDUP FOR COLORADO
NATIONAL WEATHER SERVICE DENVER/BOULDER CO
500 AM MDT THU JUN 29 2017

NOTE: "FAIR" INDICATES FEW OR NO CLOUDS BELOW 12000 FEET WITH NO
SIGNIFICANT WEATHER AND/OR OBSTRUCTIONS TO VISIBILITY.

COZ001>005-013-030-031-291200-
...NORTHWEST COLORADO...

CITY           SKY/WX    TMP DP  RH WIND       PRES   REMARKS
CRAIG          FAIR      45  32  60 W3        30.07R
HAYDEN         FAIR      48  30  49 CALM      30.09R
MEEKER         FAIR      49  35  58 CALM      30.07R
RABBIT EARS PA FAIR      41  30  65 NW8       30.28S
STEAMBOAT SPGS FAIR      45  36  71 CALM      30.10R
WALDEN         FAIR      37  32  81 SE8       30.15R
$$

COZ006>008-011-291200-
...WEST CENTRAL VALLEYS...

CITY           SKY/WX    TMP DP  RH WIND       PRES   REMARKS
GRAND JUNCTION FAIR      65  26  23 CALM      29.91R
MONTROSE       FAIR      58  18  21 SE9       29.99R
EAGLE          FAIR      51  28  41 E5        30.08R
RIFLE          FAIR      57  27  31 E6        29.98R
DELTA          FAIR      59  26  28 CALM      29.94R
NUCLA          FAIR      59  10  14 E9        30.03R
$$

COZ017>023-064>068-291200-
...SOUTHWEST COLORADO...

CITY           SKY/WX    TMP DP  RH WIND       PRES   REMARKS
DURANGO        FAIR      44  19  36 NE6       30.09R
CORTEZ         FAIR      47  28  47 E6        30.04R
PAGOSA SPRINGS FAIR      46  13  26 CALM      30.16R
TELLURIDE      FAIR      53  11  18 SE8       30.26R
WOLF CREEK PAS FAIR      43   7  22 SW10      30.46R
$$

COZ009-010-012-014-032>034-037-058>063-291200-
...CENTRAL COLORADO...

CITY           SKY/WX    TMP DP  RH WIND       PRES   REMARKS
ASPEN          FAIR      46  28  49 SW5       30.10R
BUENA VISTA    FAIR      49  20  32 S3        30.11R
COPPER MTN     FAIR      52  14  22 W10G16    30.38S
BERTHOUD PASS  FAIR      41  28  60 MISG      30.39R
COTTONWOOD PAS FAIR      59 -11   5 W9        30.23R
GUNNISON       FAIR      40  28  62 CALM      30.14
KREMMLING      FAIR      50  36  57 CALM      30.12R
LEADVILLE      FAIR      38  19  46 E7        30.23R
MONARCH PASS   FAIR      46   3  17 W24       30.49R
SALIDA         FAIR      58  17  20 NW9       30.15R
SUNLIGHT       FAIR      45  21  39 W6        30.33R
WILKERSON PASS FAIR      48  23  37 SW5       30.36R
$$

COZ069>075-291200-
...SAN LUIS VALLEY/SANGRE DE CRISTO MOUNTAINS...

CITY           SKY/WX    TMP DP  RH WIND       PRES   REMARKS
ALAMOSA        FAIR      38  28  67 E5        30.10R
DEL NORTE      FAIR      54  12  19 W17       30.13R
LA VETA PASS   FAIR      52  10  19 S18G40    30.38R
SAGUACHE       FAIR      46  10  23 CALM      30.13R
$$

COZ035-036-038>040-291200-
...NORTHERN COLORADO FRONT RANGE...

CITY           SKY/WX    TMP DP  RH WIND       PRES   REMARKS
DENVER INTL AP FAIR      59  45  59 S10       29.93R
DMNS CITY PARK   N/A     59  46  61 W2G12     29.93S
AURORA         PTCLDY    57  46  66 S10       29.95S
FRONT RANGE AP FAIR      59  46  63 SW8       29.95S
ERIE MUNI ARPT FAIR      51  44  79 W5        29.92S
BOULDER MUN AP FAIR      55  39  54 NW5       29.93R
CENTENNIAL     FAIR      55  45  68 S7        29.96S
BROOMFIELD     FAIR      59  37  44 CALM      29.95R
FORT COLLINS   FAIR      61  44  53 CALM      29.94R
LONGMONT       FAIR      55  43  63 NW5       29.95R
$$

COZ041-046-047-076>085-087-088-291200-
...PIKES PEAK/PALMER DIVIDE AND SOUTHERN FOOTHILLS...

CITY           SKY/WX    TMP DP  RH WIND       PRES   REMARKS
COLO. SPRINGS  FAIR      61  45  55 NW5       29.99R
A. F. ACADEMY  FAIR      50  42  72 N8        30.01R
SCHRIEVER AFB  FAIR      60  45  58 NW13      29.99R
CHEYENNE MTN   FAIR      63  43  49 W3        29.99R
ELLICOTT       FAIR     N/A N/A N/A CALM      29.97R
FALCON           N/A     57  44  60 NW9       30.04R
FORT CARSON    FAIR      58  43  58 NW8       29.96R
LIMON          FAIR      50  49  96 CALM      29.93R
MONUMENT HILL  FAIR      46  43  87 SW7       30.06R
CANON CITY     CLEAR     63  43  48 W3        29.94R
WALSENBURG     NOT AVBL
TRINIDAD       FAIR      57  37  47 CALM      29.97R
$$

COZ042>045-048>051-090-091-291200-
...NORTHEAST COLORADO...

CITY           SKY/WX    TMP DP  RH WIND       PRES   REMARKS
GREELEY ARPT   FAIR      54  48  80 NW3       29.92R
AKRON          FAIR      56  49  77 SE7       29.88R
BURLINGTON     FAIR      59  56  89 NW6       29.86R
WRAY           FAIR      61  54  77 E9        29.84S
YUMA           FAIR      54  52  94 E6        29.85R
STERLING       FAIR      57  50  77 W5        29.85R
HOLYOKE        NOT AVBL
FORT MORGAN    FAIR      55  46  71 CALM      29.89S
$$

COZ086-089-092>099-291200-
...SOUTHEAST COLORADO...

CITY           SKY/WX    TMP DP  RH WIND       PRES   REMARKS
PUEBLO         FAIR      64  48  56 NE7       29.90R
LA JUNTA       FAIR      61  52  72 N9        29.89R
LAMAR          FAIR      61  52  72 NW9       29.84R
SPRINGFIELD      N/A     58  55  90 NE9       29.82R
$$




USA.gov is the U.S. government's official web portal to all federal, state and local government web resources and services.